SL-14 DEB, 45278

Orbit data source: Space-Track

SL-14 DEB, 45278 is space debris in LEO originally from a launch on Thu, 15 Aug 1991 UTC launched from the Plesetsk Missile And Space Complex (PKMTR). Debris objects in space refer to the collection of defunct objects orbiting the Earth. Examples of debris include non-operational satellites, rocket bodies, and fragments generated from explosions, collisions, or faulty payload assembly.

Loading next visibility...
Identifier
45278, 1991-056Q
Orbit
LEO
Country
Flag of CISCIS
Related business
Manufacturer
Unknown
Mission
Spacecraft
Bus & Motor
Unknown
Mass
Unknown
Launch date (UTC)
1991-08-15 (34 years ago)
Launch vehicle
Unknown
Launch site
Plesetsk Missile And Space Complex (PKMTR)
Object type
Payload
Rocket body
Debris
Shape & HBR
Unknown shape, 0.2 m
Radar Cross Section
Medium (>0.1 m² and <1 m²)

Expand to show TLE details & history
Last TLE update: 8 hours ago

TLE from 8 hours ago
0 SL-14 DEB
1 45278U 91056Q   26035.66209153  .00003397  00000-0  30478-2 0  9991
2 45278  82.5657 113.2617 0132888 298.9256  59.8626 13.80058954297213
Epoch: 2026-02-04T15:53Z
TLE epoch observation values (Epoch: 2026-02-04T15:53:24.708Z)
Latitude
-0.00007°
Longitude
100.08328°
Altitude
918.561 km
Speed
7.417 km/s
True Right ascension
07h 33m 02s
True Declination
0° 00' 00"
Sunlit
Object was in full shadow at epoch
Visualization orbit readout
Latitude
Unknown
Longitude
Unknown
Altitude
Unknown
Speed
Unknown
Apparent Right ascension
Unknown
Apparent Declination
Unknown
Sunlit
N/A
Visualization observer readout
Local Sidereal Time
02:18:42
Azimuth
Unknown
Elevation
Unknown
Doppler factor
Unknown
Orbital elements
Apogee altitude
1,058.36 km
Perigee altitude
863.307 km
Semi-major axis
7,338.97 km
Eccentricity
0.01329
Inclination
82.5657°
RAAN
113.2617°
Arg. of periapsis
298.9256°
True anomaly
61.19049°
Mean anomaly
59.8626°
Eccentric anomaly
60.52545°
Mean motion
3.45216 °/min
Orbital period
104.28 mins
BSTAR
0.0030478
Loading maneuver chart data...
Computing Atmospheric mass density...
Loading historical data...
Loading historical data...
Loading historical data...
Loading historical data...
Loading historical data...
Loading historical data...
Loading historical data...

Documentation

Showing up to 5 results
|